Weather History for PAAQ - January, 2014

Change the Weather History Date:

Friday, January 24, 2014

  Actual Average Record
Temperature  
Mean Temperature 42 °F -  
Max Temperature 48 °F 19 °F 48 °F (2014)
Min Temperature 37 °F 3 °F -32 °F (1971)
Degree Days  
Heating Degree Days 22    
Moisture  
Dew Point 34 °F    
Average Humidity 67    
Maximum Humidity 83    
Minimum Humidity 50    
Precipitation  
Precipitation 0.01 in - - ()
Sea Level Pressure  
Sea Level Pressure 29.93 in    
Wind  
Wind Speed 22 mph (East)    
Max Wind Speed 32 mph    
Max Gust Speed 48 mph    
Visibility 10 miles    
Events Rain    
Averages and records for this station are not official NWS values.
T = Trace of Precipitation, MM = Missing Value Source: NWS Daily Summary

Daily Weather History Graph

Daily Weather History Graph

Search for Another Location

Airport or City:

Trip Planner

Search our weather history database for the weather conditions in past years. The results will help you decide how hot, cold, wet, or windy it might be!

Date:

Astronomy

Jan. 24, 2014 Rise Set
Actual Time 9:38 AM AKST 4:39 PM AKST
Civil Twilight 8:44 AM AKST 5:33 PM AKST
Nautical Twilight 7:49 AM AKST 6:28 PM AKST
Astronomical Twilight 6:57 AM AKST 7:20 PM AKST
Moon 2:52 AM AKST (1/24) 11:23 AM AKST (1/24)
Length of Visible Light 8h 48m
Length of Day
7h 01m
Last Quarter, 43% of the Moon is Illuminated
Jan 24
Last Quarter
Jan 30
New
Feb 6
First Quarter
Feb 14
Full
Feb 22
Last Quarter

Hourly Weather History & Observations

Time (AKST) Temp. Windchill Dew Point Humidity Pressure Visibility Wind Dir Wind Speed Gust Speed Precip Events Conditions
12:53 AM 46.9 °F - 36.0 °F 66% 29.64 in 10.0 mi SE 32.2 mph 48.3 mph 0.00 in   Overcast
1:53 AM 48.0 °F - 35.1 °F 61% 29.65 in 10.0 mi ESE 32.2 mph 46.0 mph 0.00 in Rain Light Rain
2:53 AM 46.9 °F - 36.0 °F 66% 29.64 in 10.0 mi ESE 32.2 mph 44.9 mph 0.00 in Rain Light Rain
3:53 AM 46.0 °F 36.7 °F 36.0 °F 68% 29.64 in 10.0 mi ESE 29.9 mph 43.7 mph 0.00 in Rain Light Rain
4:53 AM 46.9 °F - 35.1 °F 63% 29.65 in 10.0 mi ESE 28.8 mph 46.0 mph 0.00 in Rain Light Rain
5:53 AM 45.0 °F 35.8 °F 36.0 °F 71% 29.71 in 10.0 mi ESE 26.5 mph 47.2 mph 0.00 in Rain Light Rain
6:53 AM 45.0 °F 35.1 °F 35.1 °F 68% 29.76 in 10.0 mi SE 31.1 mph 42.6 mph 0.00 in Rain Light Rain
7:53 AM 45.0 °F 36.0 °F 35.1 °F 68% 29.81 in 10.0 mi ESE 25.3 mph 35.7 mph 0.01 in Rain Light Rain
8:53 AM 45.0 °F 36.9 °F 34.0 °F 65% 29.85 in 10.0 mi East 20.7 mph 31.1 mph 0.00 in   Overcast
9:53 AM 45.0 °F 38.9 °F 34.0 °F 65% 29.90 in 10.0 mi East 12.7 mph 23.0 mph 0.00 in   Overcast
10:53 AM 45.0 °F 41.2 °F 34.0 °F 65% 29.95 in 10.0 mi NE 6.9 mph - N/A   Overcast
11:53 AM 45.0 °F 43.5 °F 35.1 °F 68% 30.00 in 10.0 mi Variable 3.5 mph - N/A   Overcast
12:53 PM 48.0 °F - 32.0 °F 54% 30.01 in 10.0 mi SE 18.4 mph 27.6 mph N/A   Overcast
1:02 PM 46.4 °F 39.5 °F 32.0 °F 57% 30.00 in 10.0 mi SE 17.3 mph 24.2 mph N/A   Overcast
1:53 PM 48.0 °F - 30.9 °F 52% 30.01 in 10.0 mi SE 19.6 mph 25.3 mph N/A   Overcast
2:53 PM 48.0 °F - 30.0 °F 50% 30.03 in 10.0 mi SE 20.7 mph 28.8 mph N/A   Mostly Cloudy
3:53 PM 46.9 °F - 30.0 °F 52% 30.06 in 10.0 mi ESE 12.7 mph - N/A   Mostly Cloudy
4:53 PM 42.1 °F 37.1 °F 33.1 °F 70% 30.09 in 10.0 mi North 8.1 mph - N/A   Mostly Cloudy
5:53 PM 42.1 °F 37.7 °F 32.0 °F 67% 30.10 in 10.0 mi North 6.9 mph - N/A   Mostly Cloudy
6:53 PM 39.9 °F 35.8 °F 32.0 °F 73% 30.12 in 10.0 mi NNE 5.8 mph - N/A   Clear
7:53 PM 37.9 °F 32.1 °F 32.0 °F 79% 30.13 in 10.0 mi North 8.1 mph - N/A   Mostly Cloudy
8:53 PM 39.0 °F 33.4 °F 33.1 °F 79% 30.13 in 10.0 mi NNE 8.1 mph - N/A   Overcast
9:53 PM 37.9 °F 31.5 °F 33.1 °F 83% 30.14 in 10.0 mi North 9.2 mph - N/A   Overcast
10:53 PM 39.0 °F 32.8 °F 33.1 °F 79% 30.15 in 10.0 mi North 9.2 mph - N/A   Overcast
11:53 PM 39.0 °F 34.0 °F 33.1 °F 79% 30.15 in 10.0 mi North 6.9 mph - N/A   Overcast